Regional Weather Roundup
Issued by NWS Newport/Morehead, NC

Current Version | Previous Version | Graphics & Text | Print | Product List | Glossary On
Versions: 1 2 3 4 5 6 7 8 9 10 11 12 13 14 15 16 17 18 19 20 21 22 23 24 25 26 27 28 29 30 31 32 33 34 35 36 37 38 39 40 41 42 43 44 45 46 47 48 49 50
000 ASUS42 KMHX 211710 RWRMHX WEATHER ROUNDUP FOR EASTERN NORTH CAROLINA NATIONAL WEATHER SERVICE NEWPORT/MOREHEAD CITY NC 1200 PM EST SUN DEC 21 2014 NOTE: "FAIR" INDICATES FEW OR NO CLOUDS BELOW 12,000 FEET WITH NO SIGNIFICANT WEATHER AND/OR OBSTRUCTIONS TO VISIBILITY NCZ015>017-031-032-045>047-102-103-211800- NORTH COAST CITY SKY/WX TMP DP RH WIND PRES REMARKS EDENTON SUNNY 46 32 56 NE6 30.31F ELIZABETH CITY SUNNY 49 33 54 N6 30.31F KITTY HAWK SUNNY 46 36 68 N8 30.29F MANTEO SUNNY 46 36 66 NE12 30.30F $$ NCZ045>047-081-094-103-104-211800- CENTRAL COAST CITY SKY/WX TMP DP RH WIND PRES REMARKS FRISCO CLOUDY 47 39 74 NE8G20 30.27F SWANQUARTER N/A 46 N/A N/A NE8 30.24F $$ NCZ095-097-098-100-101-211800- SOUTHERN COAST CITY SKY/WX TMP DP RH WIND PRES REMARKS BEAUFORT CLOUDY 45 39 79 NE10 30.27F CEDAR ISLAND N/A 45 N/A N/A N10G20 30.33S JACKSONVILLE MOSUNNY 47 34 60 N12 30.27F PINEY ISLAND CLOUDY 47 36 65 NE13 30.28F WILMINGTON CLOUDY 47 36 65 NE10 30.25F $$ NCZ011>013-027>030-043-044-078>080-089-090>093-098-211800- COASTAL PLAIN CITY SKY/WX TMP DP RH WIND PRES REMARKS AHOSKIE MOSUNNY 42 27 55 NE3 30.32F CLINTON CLOUDY 47 38 70 NE5 30.29F ELIZABETHTOWN CLOUDY 49 37 64 NE5 30.27F GOLDSBORO CLOUDY 44 39 84 NE5 30.27F GREENVILLE CLOUDY 43 32 65 NE8 30.31F HAVELOCK CLOUDY 46 35 65 NE14 30.28F KENANSVILLE CLOUDY 44 36 71 N5 30.29F KINSTON NOT AVBL NEW BERN CLOUDY 46 35 65 NE8 30.30F RICHLANDS CLOUDY 45 32 61 NE12 30.28F ROCKY MOUNT PTSUNNY 46 34 62 N8 30.31F WASHINGTON CLOUDY 43 33 66 NE6 30.31F WHITEVILLE MOSUNNY 49 37 62 NE8 30.25F $$ AMZ130-135-150-152-154-156-158-170-250-252-270-ANZ085-086-088-633-658-670-211800- MARINE OBSERVATIONS STATION/POSITION TIME TEMP WIND PRES WAVE SWELL AIR SEA DIR/SP/G HT/PER HT/PER (UTC) (F) (DEG/KT/KT) (MB) (FT/S) (FT/S) CHESAPEAKE LIGHT 1600 40 20/ 8/ 9 1028.0 64 E VA BEACH 1700 45 54 20/ 12/ 14 1025.8 2/ 3 2/10 DUCK 1700 44 45 30/ 11/ 12 1025.5 2 E DUCK 1700 46 N/A 2/ 4 10 NE DUCK 1700 51 N/A 2/ 4 OREGON INLET 1700 47 46 10/ 11/ 15 1025.6 13E OREGON INLT 1700 52 N/A 3/ 4 HATTERAS CG 1700 46 50 30/ 11/ 17 1025.4 DIAMOND BUOY 1700 52 1024.8 3/ 5 17 S OCRACOKE NOT AVBL CAPE LOOKOUT 1600 44 20/ 16/ 19 1025.4 BEAUFORT LAB 1700 44 51 20/ 9/ 12 1024.1 30 SE NEW RIVER 1700 49 61 30/ 21/ 27 1024.0 5/ 5 2/10 5 SE WRIGHTSVLE NOT AVBL 225 S CAPE HAT 1623 67 71 90/ 19/ 23 1020.0 6/ 6 2/10 41 SE CHARLESTON 1700 61 69 30/ 19/ 21 1020.9 7/ 6 $$

USA.gov is the U.S. government's official web portal to all federal, state and local government web resources and services.